COSMOS 1375 DEB

Satellite information

Favourite Embed

Satellite Type and Status

DEBRISIN ORBIT

Key statistics

Satellite COSMOS 1375 DEB at a glance.

Uptime

15801

Days in orbit

Revolutions

≈ 13.7

Per day

Orbit

LEO

Low Earth Orbit

Inclination

65.8

Latest

Satellite identification and parameters

Extended collection of information and parameters for COSMOS 1375 DEB.

Object identification

Identified? True

Debris? True

Object name: COSMOS 1375 DEB

International designator: 1982-055H

Object number (NORAD): 16206

Object ID (CCSDS): 16206

Country: COMMONWEALTH OF INDEPENDENT STATES (CIS)

Current information (Y/N): Y

RCS size: MEDIUM

Orbital parameters

Period: 104.811 minutes

Inclination: 65.8346 deg

SMA: 7363.734 km

Apoapsis: 1001.564 km

Periapsis: 969.633 km

RAAN: 177.2736 deg

Eccentricy: 0.00216815

Argument of periapsis: 206.0174 deg

Mean anomaly: 327.6574 deg

Mean motion: 13.73901694 rev/day

Mean motion (dot): 0.00000081 rev/day2

B* drag term: 0.0001716042 1/REarth

Two-line elements (TLE)

Creation date: Sept. 8, 2025, 6:18 p.m.

Reference frame: TEME

Reference center: EARTH

Epoch: Sept. 8, 2025, 12:20 p.m. UTC

TLE line 0: 0 COSMOS 1375 DEB

TLE line 1: 1 16206U 82055H 25251.51446245 .00000081 00000-0 17160-3 0 9998

TLE line 2: 2 16206 65.8346 177.2736 0021681 206.0174 327.6574 13.73901694167674

Live tracking on map

Real-time ground track for satellite COSMOS 1375 DEB.

In-orbit conjunctions

A list of the most updated potential collisions computed for object COSMOS 1375 DEB.

Target Orbit TCA Probability of collision Miss distance Type
NIMBUS 2 DEB SSO 2024-11-10 20:00:02 0.0001369574 262.0 (m) DEBRIS

Associated space launch

ASAT target satellite

COSMOS 1375 DEB was lifted into orbit during the mission ‘Kosmos-3M | DS-P1-M 16’, on board a Kosmos-3M space rocket.

The launch took place on June 6, 1982, 5:10 p.m. from 132/2.

For more information about the launch, click the button.

Launch to space Kosmos-3M | DS-P1-M 16
Kosmos-3M | DS-P1-M 16

Agency: N/A

Status: Launch Successful

Launch date: June 6, 1982, 5:10 p.m. UTC

Rocket: Kosmos-3M

Launch pad: 132/2

Location: Plesetsk Cosmodrome, Russian Federation

...

Latest news about this satellite

There are no fresh news available about this satellite. Check back as we update our databases every day.


Newsletter sign-up

Weekly statistics, charts and insights to help you stay on top of the space industry.